Temp
74 75 75 75 64 64 56 59 70 68 68 75 79 80 78 78 75 62 75 78 76 74 76 79 80 81 81 79 80 79 78 78 79 79 79 79 79 79 79 79 80 80 80 80 80 80 80 80 80
76 80 75 68 56 53 57 64 63 70 73 76 79 84 79 73 78 72 73 77 76 74 75 77 80 81 81 81 80 78 78 78 79 79 79 79 79 79 79 79 80 80 80 80 80 80 80 80 80
75 80 69 61 54 53 53 65 73 78 79 76 75 84 81 72 76 76 77 77 75 72 73 76 79 79 80 80 79 78 78 78 79 79 79 79 79 79 79 79 79 80 80 80 80 79 79 79 79
79 72 69 61 54 62 65 70 72 76 81 81 79 77 82 85 81 79 79 77 72 70 71 78 79 79 79 79 79 78 78 78 79 79 79 79 79 78 78 79 79 80 80 80 79 79 79 79 79
74 67 59 54 59 67 72 76 77 73 77 82 84 76 77 82 82 80 79 78 71 70 72 76 78 79 79 79 79 78 78 78 78 79 79 79 78 78 78 79 79 79 79 79 79 79 79 79 79
70 66 56 52 62 70 71 74 76 76 77 82 79 76 74 81 80 80 81 76 74 72 72 75 78 78 79 79 78 78 78 78 78 78 78 78 78 78 78 78 79 79 79 79 79 79 78 78 78
66 60 55 57 62 65 71 77 73 73 77 80 84 72 73 79 82 83 80 76 74 74 72 72 74 77 79 78 78 78 77 78 78 78 77 78 78 78 78 78 78 79 78 78 78 78 78 78 78
69 63 55 58 62 67 77 74 76 74 77 87 86 73 70 79 84 82 78 75 73 71 71 69 71 72 72 74 78 78 78 78 77 77 77 77 77 78 78 77 77 78 78 78 78 78 78 78 78
72 59 54 57 64 66 74 72 78 83 80 83 86 83 83 85 81 78 75 73 71 72 69 69 69 70 70 71 75 77 78 78 77 77 77 75 72 73 75 76 77 78 78 78 78 78 78 78 78
68 55 59 70 71 66 76 77 77 77 78 78 81 85 86 85 79 76 74 71 71 70 69 69 69 69 70 77 72 71 73 73 72 73 72 71 70 70 76 76 78 78 78 78 78 78 78 78 75
64 62 70 76 77 77 79 75 79 73 68 77 77 81 86 85 80 78 76 75 74 74 73 71 70 70 70 74 70 70 70 71 71 71 71 70 72 70 72 71 73 74 76 75 76 75 73 73 73
61 72 73 79 82 74 77 83 78 76 75 83 85 85 85 84 81 79 79 77 76 75 76 74 74 73 72 72 71 71 70 70 70 71 70 69 69 69 72 73 73 72 72 72 72 71 74 74 76
64 71 75 79 77 74 78 79 80 76 80 84 86 86 85 84 84 82 83 81 80 77 78 77 77 75 75 72 71 71 71 71 71 70 71 71 69 70 72 73 73 72 71 72 71 72 72 75 77
69 71 73 74 75 73 77 77 78 77 82 82 83 83 85 85 85 84 80 82 80 80 79 79 78 77 78 75 73 73 73 73 72 72 73 73 73 73 71 72 73 72 72 73 73 74 75 77 77
70 66 71 71 71 73 77 70 76 80 82 80 83 81 85 85 86 85 85 82 83 82 82 80 79 79 79 76 75 76 75 76 75 75 75 75 74 72 73 72 72 73 73 74 73 76 75 74 76
66 61 56 69 72 78 77 64 77 78 79 79 82 80 82 81 84 87 87 84 84 84 82 82 85 80 79 79 77 78 77 77 77 77 76 77 77 74 73 72 72 75 74 74 74 73 72 72 71
57 54 58 66 70 70 70 66 75 76 77 77 79 79 81 81 80 83 86 86 84 84 83 82 83 80 80 80 80 79 77 76 78 78 77 77 77 77 73 72 72 73 73 73 73 71 71 69 70
53 55 57 60 71 69 68 69 72 77 77 77 77 80 79 78 78 84 82 85 82 84 83 83 83 82 81 79 80 76 75 75 75 77 78 78 78 78 75 73 72 73 71 70 71 70 70 69 68
61 60 61 64 71 67 63 66 71 67 70 69 70 69 68 67 70 73 74 78 77 77 77 81 82 83 81 78 76 77 77 76 74 76 77 77 78 78 75 73 73 72 71 70 71 69 69 67 67
63 61 60 65 71 68 61 57 62 64 64 65 65 65 66 68 70 72 71 71 71 69 70 76 76 75 78 80 80 81 82 79 80 75 74 77 78 77 77 74 73 72 71 70 69 68 65 65 64
62 61 60 61 66 65 62 54 57 63 65 66 67 68 68 67 67 69 70 69 70 69 68 68 69 75 75 75 75 73 73 74 74 74 76 77 77 77 77 75 75 72 71 69 68 67 65 62 62
56 67 68 66 58 53 62 41 53 57 59 61 62 62 63 65 68 69 69 68 68 68 70 69 68 70 75 75 73 71 68 66 66 71 81 78 76 77 77 75 75 73 73 69 67 66 63 62 61
66 69 65 64 56 52 55 43 47 56 50 51 55 59 60 62 65 64 66 69 69 68 65 66 65 64 68 67 66 64 63 63 63 66 70 75 73 76 78 75 75 73 72 68 67 64 62 61 60
71 65 61 56 53 43 47 44 42 44 47 50 54 56 58 60 61 64 65 66 64 65 63 64 63 64 64 64 66 65 66 65 66 66 64 66 72 73 75 74 74 72 68 65 65 63 62 60 59
63 53 44 44 43 40 51 43 37 46 49 50 50 52 53 55 56 57 59 58 60 60 60 60 58 59 63 64 64 66 64 64 66 66 65 64 68 71 73 71 68 67 66 64 62 61 60 59 58
57 52 43 38 39 43 52 39 36 48 51 52 51 48 49 49 50 51 53 53 55 57 57 55 54 54 56 60 61 63 63 62 63 64 65 63 65 69 73 70 68 65 64 64 63 61 59 59 56
55 48 53 46 45 44 41 41 47 47 46 46 45 45 44 46 46 47 48 49 50 51 51 50 51 51 53 54 58 59 61 62 64 65 68 68 66 67 69 69 64 64 64 63 62 60 60 58 54
57 59 47 43 37 34 38 35 30 36 39 41 40 40 41 43 44 45 45 46 46 46 47 48 49 48 50 52 55 57 57 60 61 61 63 66 68 67 67 66 64 64 64 63 61 59 59 58 55
49 45 45 43 40 37 31 29 41 37 38 37 38 39 39 40 41 42 44 45 45 45 44 45 46 46 48 49 49 50 53 56 59 59 61 64 69 68 66 64 63 63 62 62 60 60 60 59 57
52 44 42 37 37 37 32 25 42 41 39 39 37 40 40 41 41 41 41 42 42 43 44 44 45 45 46 47 48 48 49 51 53 57 59 63 69 66 66 65 63 63 62 61 60 60 61 60 57
MSLP
1010.30 1010.31 1010.23 1010.60 1011.80 1012.21 1013.22 1012.25 1011.09 1010.41 1009.67 1008.83 1008.86 1007.56 1007.32 1008.19 1008.85 1010.55 1010.09 1010.84 1011.53 1012.19 1012.35 1012.71 1012.89 1013.09 1013.51 1013.91 1014.04 1014.29 1014.54 1014.72 1014.77 1014.87 1015.12 1015.29 1015.44 1015.60 1015.68 1015.73 1015.80 1015.85 1015.91 1015.99 1016.01 1016.09 1016.26 1016.35 1016.32
1010.12 1010.26 1010.55 1011.09 1012.42 1013.09 1013.23 1012.74 1011.47 1009.53 1008.72 1008.44 1007.88 1007.45 1007.07 1008.36 1009.05 1010.26 1010.94 1011.60 1011.90 1012.13 1012.42 1012.76 1012.95 1013.29 1013.57 1013.88 1014.21 1014.44 1014.62 1014.82 1014.97 1015.05 1015.22 1015.41 1015.62 1015.73 1015.86 1015.94 1015.97 1016.07 1016.07 1016.09 1016.13 1016.18 1016.25 1016.31 1016.28
1010.03 1010.13 1011.24 1011.84 1012.91 1013.07 1012.82 1011.73 1009.85 1008.01 1007.77 1008.47 1008.35 1007.09 1007.21 1008.65 1009.55 1010.35 1010.76 1011.56 1012.21 1012.41 1012.64 1012.92 1013.18 1013.55 1013.83 1014.08 1014.41 1014.61 1014.78 1014.95 1015.10 1015.16 1015.38 1015.54 1015.75 1015.87 1015.93 1016.09 1016.12 1016.17 1016.26 1016.32 1016.22 1016.19 1016.19 1016.21 1016.13
1009.73 1010.81 1011.37 1011.59 1012.25 1011.77 1010.94 1010.16 1008.76 1008.25 1007.42 1007.61 1007.99 1007.51 1007.72 1007.90 1008.87 1009.81 1011.00 1011.88 1012.68 1012.85 1012.97 1013.07 1013.35 1013.67 1014.00 1014.23 1014.47 1014.71 1014.81 1014.95 1015.14 1015.22 1015.42 1015.65 1015.76 1015.96 1016.07 1016.15 1016.24 1016.30 1016.31 1016.35 1016.32 1016.17 1016.08 1016.09 1016.19
1009.50 1010.83 1011.38 1011.46 1011.32 1010.12 1009.60 1008.73 1008.81 1008.80 1008.49 1007.29 1007.11 1007.50 1008.06 1008.68 1008.79 1010.13 1011.33 1011.94 1012.44 1013.07 1013.09 1013.31 1013.61 1013.81 1014.02 1014.28 1014.45 1014.61 1014.81 1014.94 1015.15 1015.28 1015.42 1015.67 1015.79 1015.97 1016.09 1016.19 1016.24 1016.28 1016.38 1016.29 1016.17 1016.07 1015.94 1015.99 1016.09
1009.85 1010.88 1011.46 1011.60 1010.56 1009.68 1008.80 1008.52 1008.43 1008.66 1007.92 1007.40 1007.56 1007.88 1009.15 1009.53 1009.08 1010.47 1011.26 1012.11 1012.65 1012.75 1013.09 1013.45 1013.73 1013.94 1014.17 1014.30 1014.53 1014.71 1014.88 1014.96 1015.17 1015.37 1015.35 1015.58 1015.80 1015.93 1016.02 1016.12 1016.22 1016.19 1016.23 1016.13 1016.01 1015.86 1015.79 1015.85 1015.79
1010.09 1011.04 1010.97 1010.93 1010.34 1009.60 1009.01 1008.33 1009.16 1008.51 1007.94 1007.53 1007.72 1008.52 1009.80 1009.91 1009.84 1010.10 1011.27 1012.18 1012.71 1012.71 1013.09 1013.55 1013.81 1014.04 1014.25 1014.47 1014.54 1014.69 1014.83 1015.05 1015.20 1015.27 1015.39 1015.46 1015.71 1015.91 1015.95 1015.95 1016.03 1016.05 1015.95 1015.85 1015.76 1015.74 1015.62 1015.65 1015.59
1009.69 1010.55 1010.71 1010.45 1009.94 1008.66 1008.02 1008.45 1008.45 1008.73 1007.86 1007.57 1007.75 1008.75 1009.41 1009.39 1010.03 1010.75 1011.50 1012.05 1012.35 1012.83 1013.15 1013.56 1013.90 1014.08 1014.25 1014.45 1014.46 1014.64 1014.77 1014.98 1015.07 1015.25 1015.33 1015.41 1015.60 1015.75 1015.93 1015.87 1015.82 1015.73 1015.61 1015.48 1015.54 1015.63 1015.55 1015.33 1015.17
1009.23 1010.05 1010.35 1010.08 1009.41 1008.58 1008.09 1008.34 1007.84 1007.85 1007.51 1007.22 1007.09 1007.64 1008.64 1009.23 1010.00 1011.04 1011.81 1012.43 1012.97 1013.29 1013.31 1013.53 1013.88 1014.10 1014.20 1014.43 1014.43 1014.67 1014.75 1014.92 1015.07 1015.21 1015.25 1015.39 1015.68 1015.69 1015.84 1015.68 1015.65 1015.59 1015.48 1015.27 1015.33 1015.46 1015.42 1015.21 1015.07
1009.20 1009.49 1009.52 1008.67 1008.13 1008.39 1007.73 1007.59 1007.60 1007.75 1007.98 1007.77 1007.12 1006.75 1008.60 1009.87 1010.61 1010.79 1011.65 1012.42 1012.80 1013.10 1013.39 1013.34 1013.65 1013.87 1014.08 1014.10 1014.37 1014.66 1014.78 1014.87 1015.06 1015.25 1015.29 1015.50 1015.75 1015.75 1015.67 1015.52 1015.45 1015.57 1015.42 1015.19 1015.09 1015.20 1015.25 1015.11 1015.08
1008.80 1008.67 1008.37 1007.50 1007.01 1007.64 1007.35 1007.57 1007.54 1008.06 1008.26 1007.48 1007.20 1007.76 1007.76 1008.67 1010.07 1010.63 1011.23 1011.28 1011.46 1011.92 1012.61 1012.93 1013.26 1013.60 1013.86 1013.89 1014.42 1014.73 1014.86 1014.97 1015.15 1015.25 1015.30 1015.53 1015.76 1015.88 1015.73 1015.59 1015.47 1015.42 1015.40 1015.29 1015.03 1014.90 1015.07 1014.91 1014.95
1008.59 1007.85 1007.53 1006.75 1006.03 1006.20 1007.04 1006.37 1007.37 1007.42 1007.13 1006.59 1005.95 1006.03 1006.59 1007.82 1009.12 1009.89 1010.64 1011.07 1011.39 1011.54 1011.49 1012.02 1012.58 1012.96 1013.43 1013.82 1014.25 1014.58 1014.77 1014.95 1015.12 1015.06 1015.28 1015.67 1015.76 1015.80 1015.65 1015.50 1015.28 1015.31 1015.26 1015.16 1014.97 1014.92 1014.69 1014.51 1014.41
1007.99 1007.35 1006.75 1006.09 1005.92 1005.80 1005.74 1006.05 1005.98 1006.47 1006.45 1006.17 1005.37 1006.12 1006.51 1007.49 1008.14 1008.87 1009.33 1009.89 1010.62 1010.75 1011.00 1011.40 1011.92 1012.38 1012.80 1013.39 1013.81 1014.18 1014.37 1014.54 1014.55 1014.84 1014.98 1015.23 1015.45 1015.51 1015.33 1015.22 1015.24 1015.23 1015.14 1014.97 1014.85 1014.69 1014.43 1014.14 1014.04
1007.32 1007.00 1006.39 1005.76 1005.43 1005.19 1005.27 1005.13 1005.63 1006.32 1006.17 1006.38 1006.49 1006.78 1006.48 1006.51 1007.05 1007.75 1008.51 1008.99 1009.51 1009.70 1010.07 1010.54 1011.19 1011.73 1012.04 1012.64 1013.19 1013.48 1013.73 1013.97 1014.36 1014.48 1014.53 1014.77 1014.96 1015.05 1015.16 1014.91 1014.67 1014.79 1014.75 1014.55 1014.51 1014.45 1014.36 1014.14 1013.85
1007.21 1007.09 1006.15 1005.52 1005.09 1004.82 1004.66 1005.03 1004.96 1005.89 1006.21 1006.54 1006.47 1006.52 1006.39 1006.35 1006.65 1006.77 1007.20 1007.92 1008.26 1008.76 1009.15 1009.68 1010.25 1010.92 1011.39 1011.82 1012.25 1012.72 1013.19 1013.37 1013.49 1013.69 1013.88 1014.00 1014.06 1014.18 1014.31 1014.67 1014.58 1014.22 1014.16 1014.29 1014.49 1014.16 1013.87 1013.94 1014.01
1007.71 1007.42 1006.89 1005.54 1005.06 1004.41 1004.67 1005.36 1004.89 1005.36 1006.19 1006.45 1006.31 1006.41 1006.60 1006.61 1006.01 1005.66 1005.78 1006.49 1006.95 1007.50 1008.06 1008.78 1009.53 1010.06 1010.48 1010.85 1011.39 1011.71 1012.12 1012.53 1012.92 1013.18 1013.27 1013.33 1013.42 1013.56 1013.81 1013.91 1013.83 1013.64 1013.75 1013.71 1013.98 1014.20 1014.19 1014.19 1014.25
1008.83 1008.22 1007.42 1006.37 1005.14 1005.31 1005.63 1005.72 1005.32 1005.87 1006.23 1006.65 1006.80 1006.58 1006.46 1006.45 1006.57 1006.17 1005.56 1005.59 1006.25 1006.35 1006.97 1007.67 1008.17 1008.80 1009.36 1010.04 1010.42 1010.75 1011.03 1011.86 1011.95 1012.42 1012.59 1012.74 1012.95 1013.16 1013.34 1013.35 1013.40 1013.39 1013.82 1014.05 1014.03 1014.06 1014.15 1014.65 1014.67
1009.15 1008.51 1007.73 1006.97 1005.95 1005.71 1005.75 1005.90 1006.30 1008.07 1008.57 1009.33 1008.65 1007.69 1008.39 1009.13 1009.59 1008.27 1007.59 1006.63 1006.13 1006.44 1006.64 1007.15 1007.67 1008.11 1008.80 1009.25 1009.93 1010.33 1010.52 1010.84 1010.97 1011.29 1011.61 1011.86 1012.09 1012.35 1012.77 1012.98 1013.06 1013.15 1013.74 1014.00 1014.12 1014.07 1014.21 1014.51 1014.76
1008.78 1008.50 1007.87 1006.91 1006.20 1006.29 1006.71 1007.68 1010.15 1010.73 1011.03 1011.94 1011.99 1011.18 1011.85 1012.60 1012.20 1011.05 1009.59 1009.29 1009.14 1009.99 1010.13 1007.45 1006.44 1007.09 1008.23 1009.05 1009.32 1009.74 1009.85 1009.94 1010.29 1010.49 1010.56 1011.04 1011.37 1011.69 1012.02 1012.43 1012.75 1012.99 1013.49 1013.92 1014.07 1014.14 1014.41 1014.68 1014.78
1008.13 1008.05 1007.15 1006.32 1005.87 1006.64 1009.65 1012.28 1013.35 1012.96 1014.18 1014.11 1013.76 1013.67 1013.82 1014.02 1013.68 1013.01 1012.05 1011.35 1011.65 1011.77 1011.49 1010.55 1010.21 1010.47 1010.69 1010.37 1010.07 1010.09 1009.57 1009.51 1009.48 1009.89 1010.34 1010.62 1011.01 1011.15 1011.34 1011.81 1012.17 1012.59 1012.93 1013.34 1013.84 1013.90 1014.41 1014.71 1014.79
1007.08 1006.97 1006.56 1006.48 1006.46 1007.14 1008.81 1013.25 1015.19 1015.80 1015.86 1016.07 1016.19 1016.17 1015.62 1015.50 1015.43 1014.63 1013.79 1013.21 1013.12 1013.06 1012.97 1012.39 1011.66 1010.70 1010.31 1010.31 1010.49 1010.73 1011.19 1012.10 1012.84 1012.44 1010.96 1009.85 1010.07 1010.46 1010.90 1011.20 1011.60 1011.97 1012.41 1012.73 1013.37 1013.69 1013.97 1014.61 1014.87
1006.24 1006.16 1006.25 1006.83 1007.49 1008.48 1009.18 1014.35 1016.49 1017.67 1017.87 1017.88 1018.14 1017.74 1017.75 1017.44 1016.83 1016.13 1015.23 1014.97 1014.82 1014.64 1014.13 1013.39 1012.61 1011.95 1011.00 1010.55 1010.42 1010.86 1011.76 1012.48 1013.48 1013.78 1012.65 1011.88 1011.58 1010.22 1009.91 1010.50 1011.15 1011.33 1011.76 1012.15 1012.75 1013.33 1013.60 1013.90 1014.76
1005.87 1005.96 1006.63 1007.42 1008.75 1009.89 1011.95 1014.81 1018.01 1018.72 1019.60 1020.70 1020.59 1019.89 1019.62 1019.18 1018.30 1017.80 1017.26 1017.02 1016.57 1015.77 1015.26 1014.77 1014.13 1013.69 1013.09 1012.77 1012.49 1011.39 1011.17 1011.67 1012.11 1012.61 1013.13 1012.76 1011.75 1011.52 1011.26 1010.03 1010.54 1010.91 1011.41 1011.75 1012.22 1013.07 1013.64 1013.75 1014.24
1005.75 1006.53 1007.47 1008.73 1010.09 1012.45 1014.69 1016.54 1020.88 1021.55 1022.91 1022.80 1022.68 1022.35 1021.93 1021.30 1020.63 1019.89 1019.67 1019.04 1018.25 1017.59 1016.75 1016.00 1015.51 1014.91 1014.29 1013.80 1013.20 1012.95 1011.76 1010.30 1010.72 1011.95 1012.35 1013.65 1012.37 1011.03 1011.00 1011.13 1010.38 1010.57 1010.92 1011.08 1011.73 1012.67 1013.55 1013.61 1013.92
1006.70 1008.26 1009.72 1011.21 1012.42 1015.05 1016.32 1018.69 1023.45 1024.37 1024.39 1024.79 1025.14 1024.86 1024.53 1023.83 1022.86 1022.13 1021.43 1020.93 1020.40 1019.32 1018.30 1017.78 1017.24 1016.39 1014.96 1014.47 1014.24 1013.42 1012.78 1012.06 1010.91 1012.77 1011.32 1013.24 1012.53 1010.90 1010.36 1010.57 1010.61 1010.20 1010.64 1011.03 1011.79 1012.65 1013.77 1013.87 1014.11
1008.36 1009.72 1011.35 1012.65 1014.37 1016.08 1017.45 1020.69 1024.67 1025.53 1025.85 1025.99 1026.51 1026.81 1026.37 1025.53 1024.98 1024.37 1023.82 1023.25 1022.73 1021.53 1020.54 1019.38 1018.40 1017.28 1016.46 1015.40 1014.57 1014.13 1013.39 1013.06 1013.25 1013.09 1012.89 1011.91 1011.18 1010.79 1010.21 1009.95 1010.27 1010.07 1010.68 1010.88 1011.82 1012.70 1013.97 1014.27 1014.53
1009.96 1011.16 1012.07 1013.64 1015.19 1017.15 1019.99 1022.91 1023.91 1025.31 1026.35 1026.87 1027.13 1027.59 1027.18 1026.89 1026.35 1025.68 1025.19 1024.76 1024.00 1023.05 1022.08 1021.08 1020.03 1018.64 1017.26 1016.31 1015.25 1014.21 1013.63 1013.06 1012.73 1012.41 1011.54 1010.54 1009.75 1008.91 1008.84 1009.20 1008.23 1009.58 1009.83 1010.33 1011.61 1012.37 1013.37 1014.64 1015.03
1011.09 1012.63 1013.65 1015.31 1017.22 1019.23 1021.86 1024.27 1026.35 1026.69 1027.02 1027.61 1027.85 1028.35 1028.79 1028.42 1027.84 1026.80 1026.22 1025.75 1025.20 1024.43 1023.37 1022.13 1020.90 1020.20 1018.85 1017.59 1016.58 1015.37 1014.13 1012.86 1012.43 1012.51 1010.88 1009.25 1008.09 1007.22 1007.01 1008.76 1008.43 1007.88 1009.10 1009.93 1010.87 1011.64 1013.38 1014.77 1015.48
1013.33 1014.47 1015.78 1017.10 1018.83 1020.09 1023.28 1026.60 1028.42 1029.05 1029.21 1029.10 1029.00 1028.59 1028.15 1028.60 1028.13 1027.44 1027.12 1026.52 1025.77 1024.95 1024.13 1023.09 1022.19 1020.75 1019.29 1018.13 1016.82 1015.79 1014.63 1013.35 1012.35 1011.43 1010.62 1009.09 1006.78 1006.92 1007.00 1007.61 1008.35 1007.75 1009.50 1010.63 1010.85 1011.35 1013.04 1014.30 1015.27
1015.52 1016.94 1017.80 1018.94 1020.91 1021.87 1024.13 1028.29 1029.60 1029.99 1030.37 1030.68 1030.79 1030.30 1029.43 1028.67 1028.41 1027.83 1026.76 1025.99 1025.35 1024.87 1024.07 1023.22 1022.42 1021.47 1020.27 1019.11 1017.51 1015.57 1014.49 1013.28 1011.98 1010.85 1009.72 1008.32 1005.87 1005.83 1006.09 1006.52 1007.16 1007.98 1007.39 1009.31 1010.45 1012.04 1012.99 1013.74 1014.51
Wind_Speed
3 5 2 3 5 5 2 6 4 5 4 2 8 1 9 4 2 4 2 11 17 14 13 13 16 18 19 18 15 15 14 14 15 15 15 15 14 14 13 12 11 12 11 10 9 8 7 7 7
1 4 4 2 7 4 2 1 17 14 8 7 12 6 6 3 5 10 9 12 14 14 12 12 17 17 17 18 14 15 15 15 15 15 15 14 13 12 12 11 11 10 9 8 7 5 4 4 4
2 1 4 5 3 5 5 6 7 9 14 5 5 0 4 4 11 9 12 15 13 11 10 13 17 17 17 18 15 16 15 15 15 15 14 14 12 11 10 9 9 9 7 6 4 3 2 4 4
4 4 4 4 5 6 8 15 25 7 7 7 12 4 4 6 8 9 18 16 10 9 7 16 17 17 17 17 16 16 16 16 15 15 14 13 12 10 8 8 7 7 6 4 2 1 3 5 5
3 4 3 1 4 7 7 18 15 11 8 4 5 3 3 3 19 21 18 14 14 9 8 12 17 17 17 17 17 17 16 15 14 14 14 13 12 10 9 8 7 6 4 4 4 5 6 6 6
5 3 2 2 4 4 1 9 7 4 5 3 8 5 3 14 23 18 16 13 11 13 8 10 16 15 15 16 16 15 14 14 14 13 13 13 11 10 9 8 7 7 6 6 7 7 7 7 7
5 3 4 5 4 3 4 8 5 5 2 5 6 4 6 12 15 19 16 14 13 11 9 7 8 12 15 15 15 15 14 13 12 12 12 12 12 10 9 8 8 8 8 9 10 9 9 9 9
5 4 2 2 2 8 8 5 6 4 2 5 2 4 8 12 15 15 14 13 13 12 9 7 6 6 6 8 16 16 15 14 13 12 12 12 12 11 10 9 10 11 12 12 11 9 10 11 11
4 1 2 3 1 4 11 9 4 4 3 1 4 7 8 14 19 15 12 9 8 8 9 8 7 6 6 6 9 14 16 15 14 13 13 9 4 6 9 10 14 13 13 13 12 11 11 11 12
6 3 5 7 5 1 13 11 8 3 4 3 8 16 10 12 15 17 14 11 11 11 10 10 9 9 8 8 6 6 7 5 5 5 5 4 5 5 8 11 15 14 14 15 14 13 11 11 4
4 6 7 12 9 12 13 6 7 8 2 6 19 18 18 14 14 15 15 18 20 17 12 14 12 10 10 7 4 4 3 3 4 6 5 4 4 4 5 3 4 5 10 6 7 6 3 6 4
3 8 7 13 12 2 11 13 5 5 11 19 24 26 23 19 14 16 16 15 13 16 17 16 15 14 12 5 7 6 5 4 5 6 6 4 4 4 6 4 6 4 3 6 5 3 5 6 7
6 7 8 12 10 6 5 15 11 13 16 19 18 18 21 20 17 11 17 17 15 16 16 17 16 14 13 10 8 7 7 7 7 5 7 6 5 5 5 6 5 4 4 5 5 5 5 5 5
4 6 10 8 10 5 6 3 6 12 17 17 13 18 22 23 21 16 12 18 19 18 17 17 17 15 14 12 12 9 8 7 5 5 7 10 7 6 5 5 5 5 5 5 4 5 4 4 4
4 5 9 5 3 5 5 1 4 19 20 19 19 13 19 20 19 21 17 18 20 17 18 19 19 17 16 16 13 9 8 8 8 7 8 10 9 7 6 5 5 5 5 6 5 5 3 3 2
6 3 4 7 4 6 9 8 9 13 19 18 17 6 11 13 21 20 18 18 21 19 21 20 17 18 17 16 12 10 8 8 7 8 7 11 11 9 6 5 5 4 2 2 2 2 2 3 1
7 3 5 11 2 3 3 9 8 10 11 14 14 11 12 9 10 14 14 16 20 22 21 22 22 21 21 17 12 12 12 8 8 8 8 11 12 11 6 5 5 4 3 3 2 1 3 1 1
6 1 4 6 10 4 10 13 5 8 13 14 13 12 7 12 18 19 12 8 10 18 18 20 18 19 19 13 11 7 8 9 8 10 10 12 11 11 9 5 5 4 3 2 2 2 1 2 1
2 4 9 6 4 1 5 6 29 24 29 27 23 28 26 24 23 24 23 21 15 15 14 11 22 20 14 10 10 10 10 9 7 8 12 11 11 12 9 6 5 5 5 5 4 2 3 1 0
7 8 6 6 3 5 28 26 28 29 26 26 25 26 25 24 24 26 25 25 22 20 20 12 3 5 7 4 3 4 7 6 8 5 5 9 12 11 10 8 7 6 4 5 5 4 3 1 2
7 7 4 5 4 2 14 18 22 20 24 24 24 21 23 23 22 22 25 26 25 25 21 17 14 7 3 2 2 2 5 6 8 8 5 11 13 13 12 10 9 7 6 6 5 5 6 4 1
1 2 2 2 4 4 3 6 19 14 20 26 27 28 26 25 19 21 21 24 23 20 20 21 19 18 7 4 3 6 8 4 4 11 13 7 10 12 14 12 11 10 7 8 6 5 4 5 5
6 1 2 2 4 3 6 10 8 17 23 23 23 26 24 25 23 27 26 22 21 21 18 18 19 17 16 13 7 5 7 6 2 6 15 17 6 9 12 12 12 10 8 8 8 6 5 3 4
2 5 7 5 3 7 9 8 12 10 18 20 21 22 23 23 22 20 21 21 22 21 22 22 23 17 15 14 8 8 8 2 7 13 10 11 10 7 12 10 11 10 8 10 8 6 6 5 5
9 7 4 5 6 3 4 14 5 14 17 17 18 20 21 21 23 23 24 20 22 24 24 21 23 21 20 16 16 13 8 7 10 21 11 9 10 8 10 10 9 8 8 8 7 7 4 5 5
6 7 6 5 4 6 2 7 5 11 12 14 16 16 17 20 19 20 21 21 20 21 22 24 23 22 20 21 19 14 11 5 5 10 9 8 9 9 12 11 8 7 9 9 9 6 3 3 4
2 5 4 6 2 5 5 6 8 18 16 17 19 19 20 20 19 20 19 18 19 20 22 22 21 23 23 21 16 17 15 14 12 15 15 11 14 13 16 13 12 12 14 13 10 7 7 3 3
8 2 4 5 4 4 4 4 6 20 19 19 19 18 16 16 18 19 18 18 16 17 18 22 20 20 20 20 17 16 19 18 16 13 18 21 17 9 10 21 13 14 11 14 11 10 7 5 3
7 5 6 6 3 5 5 3 7 10 11 17 19 21 21 18 17 16 15 15 15 15 15 16 18 24 21 21 22 20 17 18 18 15 14 20 17 17 18 17 11 12 11 8 8 12 11 9 6
7 3 4 5 3 3 4 2 5 8 6 10 12 16 17 18 18 18 19 19 18 18 19 18 16 17 21 20 21 23 20 18 18 18 17 20 12 16 18 15 15 16 14 18 15 11 11 12 9
Wind_Direction
140 176 151 61 53 86 312 263 256 281 316 317 281 322 111 26 167 205 117 142 135 148 152 152 146 140 144 144 146 127 133 130 128 126 121 120 121 120 119 117 114 111 107 101 95 88 79 75 74
125 145 33 57 81 89 236 319 283 285 211 343 323 282 57 101 67 118 110 139 141 146 144 148 146 144 146 147 137 138 139 136 132 130 127 127 128 127 123 121 118 114 111 106 99 84 61 54 53
203 231 90 93 117 168 188 220 270 262 272 211 277 37 83 108 120 144 127 136 147 139 140 152 146 146 146 151 147 146 143 142 137 134 134 134 132 127 124 125 125 123 118 114 109 82 18 345 337
158 20 25 108 203 244 196 200 222 351 327 233 216 70 44 175 138 143 134 139 133 135 135 147 149 148 151 153 153 150 148 146 145 142 140 140 139 138 136 137 136 135 132 132 136 202 275 286 313
56 73 63 204 259 259 208 209 197 235 283 176 174 128 74 61 117 129 142 139 140 141 140 144 151 154 157 156 155 153 154 152 152 149 147 148 148 149 150 154 157 154 163 180 223 247 262 284 301
10 99 35 320 315 272 251 205 211 223 262 87 95 82 41 139 129 144 141 139 146 140 136 151 155 157 159 158 158 157 159 159 159 158 156 158 160 163 168 172 180 178 197 218 239 258 274 285 296
121 89 220 183 257 252 195 176 261 323 291 69 116 77 125 160 144 145 139 139 144 137 136 144 154 165 162 161 161 164 165 164 165 165 166 169 173 179 186 190 203 207 216 228 237 249 266 274 278
106 106 45 303 95 252 208 107 201 215 60 95 118 150 179 178 150 132 137 139 141 145 146 146 154 153 156 169 169 172 172 173 174 177 176 180 186 190 203 208 217 221 228 237 243 247 261 272 278
92 302 295 257 3 345 140 167 211 229 74 108 203 137 165 158 130 133 132 124 129 149 155 154 160 164 159 170 180 180 180 182 184 188 189 188 196 204 219 220 225 228 236 247 251 250 256 270 280
118 206 243 206 212 136 177 189 169 196 176 56 100 113 115 136 151 146 152 157 168 165 177 168 169 174 168 178 185 180 192 186 186 196 197 193 209 213 224 232 234 233 237 245 255 259 258 263 271
211 222 232 278 266 147 186 219 177 136 19 186 135 154 160 165 162 161 173 173 182 180 173 177 173 178 179 185 170 186 197 186 199 204 202 205 217 233 240 253 250 234 243 245 253 258 254 250 246
231 254 233 268 274 264 179 175 202 192 193 173 159 171 168 171 183 180 183 191 182 180 184 176 180 176 184 170 179 191 193 195 205 211 207 197 222 227 242 235 244 236 215 236 250 253 244 245 229
189 264 267 260 284 247 145 198 180 205 181 187 176 163 165 182 196 190 190 189 187 184 186 184 179 183 182 172 182 190 200 200 205 202 209 201 208 224 230 244 235 237 215 230 240 247 265 265 229
259 287 277 291 280 230 190 211 133 196 172 190 183 187 181 185 196 200 178 192 189 189 188 182 183 186 181 183 182 194 196 200 197 202 213 211 213 221 219 228 217 225 215 228 225 227 235 221 180
247 318 333 276 267 279 149 1 257 172 188 189 197 204 188 192 196 203 199 190 189 194 186 187 183 184 186 188 185 189 199 193 197 205 208 209 211 220 213 221 218 213 207 221 214 209 167 90 43
3 32 342 286 336 287 91 269 268 166 176 197 219 201 199 214 214 208 202 189 193 187 187 185 186 186 189 192 189 187 190 200 197 206 204 211 214 210 211 213 221 233 244 241 175 224 90 97 73
2 259 314 326 331 310 122 262 261 154 170 197 217 215 220 222 244 246 218 205 189 191 184 185 187 186 192 195 192 190 188 191 197 204 207 210 213 214 203 207 222 217 225 204 190 138 131 117 323
229 297 317 269 289 179 244 251 288 79 39 18 10 271 319 354 347 321 326 281 198 187 186 183 189 190 189 188 190 189 180 196 187 195 202 202 208 208 200 216 213 200 168 172 192 148 95 131 217
222 237 248 242 227 198 312 43 44 50 59 57 45 42 45 33 19 9 25 23 31 15 334 218 187 192 183 184 183 186 194 197 197 197 194 194 201 206 195 203 199 184 183 199 188 137 120 82 142
218 254 269 275 287 100 72 60 50 44 48 50 45 47 42 38 30 23 26 31 31 23 7 358 32 337 305 292 247 253 219 215 207 178 197 195 201 204 195 195 202 188 177 177 180 161 133 138 164
199 199 234 216 337 55 118 66 45 45 51 49 52 50 43 40 34 26 28 32 29 22 12 355 346 333 204 151 117 40 42 16 354 335 266 212 201 201 200 195 200 181 178 173 180 172 156 160 213
112 329 49 61 71 168 57 163 46 43 50 42 36 33 28 20 28 26 29 31 24 17 13 10 3 360 338 92 73 94 84 72 25 339 309 282 274 210 198 195 199 190 179 168 168 176 168 143 163
178 102 61 100 104 95 39 74 330 36 36 34 29 27 26 20 27 25 21 21 16 11 9 10 16 14 9 356 15 110 123 137 91 343 330 312 255 246 244 198 196 190 177 169 159 157 161 162 147
89 54 46 53 80 52 296 109 24 23 19 28 27 25 17 20 22 24 20 22 11 11 8 3 4 9 5 15 316 319 299 11 14 303 306 303 285 234 232 232 203 181 170 168 160 142 166 157 138
64 55 4 15 32 152 169 68 46 34 20 25 27 22 16 14 14 10 16 26 9 4 3 1 360 356 353 1 8 352 329 311 198 243 265 270 289 266 236 207 208 182 172 154 137 128 156 146 144
57 120 145 160 136 170 13 116 75 41 22 28 28 19 17 15 10 9 6 4 5 357 358 352 350 344 350 347 350 352 330 291 292 289 265 237 235 263 255 217 204 151 146 130 129 126 155 136 137
355 60 177 106 31 82 109 99 210 18 19 17 13 13 9 8 4 4 1 1 358 356 351 345 343 340 338 336 335 335 333 322 321 316 281 269 247 249 238 233 171 160 154 140 154 146 135 159 169
85 6 77 9 147 148 69 75 345 353 354 359 3 6 8 2 358 358 356 353 353 351 345 335 340 335 328 330 332 326 318 314 314 301 300 302 269 262 272 252 217 155 182 144 149 128 126 156 197
5 23 40 107 81 184 146 97 35 353 9 355 353 352 351 358 357 358 354 350 351 351 346 336 339 329 328 329 322 318 311 306 299 296 292 296 256 216 218 183 178 150 158 127 139 138 153 167 183
76 68 90 116 243 49 98 115 38 11 43 6 351 345 344 349 353 353 351 351 355 356 351 343 335 325 321 318 314 310 306 304 299 294 294 304 249 197 197 179 162 160 168 160 159 166 174 171 165